Regional Weather Roundup
Issued by NWS

Home | Current Version | Previous Version | Graphics & Text | Print | Product List | Glossary On
Versions: 1 2 3 4 5 6 7 8 9 10 11 12 13 14 15 16 17 18 19 20 21 22 23 24 25 26 27 28 29 30 31 32 33 34 35 36 37 38 39 40 41 42 43 44 45 46 47 48 49 50
614
ASUS43 KLSX 110207
RWRMO

WEATHER SUMMARY FOR MISSOURI
NATIONAL WEATHER SERVICE SPRINGFIELD MO
800 PM CST SUN DEC 10 2017

NOTE: "FAIR" INDICATES FEW OR NO CLOUDS BELOW 12,000 FEET WITH NO
       SIGNIFICANT WEATHER AND/OR OBSTRUCTIONS TO VISIBILITY.
       CURRENT SKY AND/OR WEATHER CONDITIONS ARE NOT AVAILABLE FOR
       CHILLICOTHE AND FARMINGTON.

MOZ001>031-035>038-043-044-053-054-110300-
...NORTHERN AND WESTERN MISSOURI...

CITY           SKY/WX    TMP DP  RH WIND       PRES   REMARKS
KANSAS CTY INT CLEAR     45  24  43 CALM      30.14S
KANSAS C DTWN  CLEAR     41  26  55 CALM      30.14R
LEE`S SUMMIT   PTCLDY    48  24  39 W3        30.15R
ST JOSEPH      CLEAR     36  26  67 SE3       30.13F
CHILLICOTHE      N/A     36  24  62 CALM      30.14R
KIRKSVILLE     CLEAR     30  24  78 W5        30.11S WCI  25

$$
MOZ066>068-077>081-088>096-101>105-110300-
...SOUTHWEST MISSOURI...

CITY           SKY/WX    TMP DP  RH WIND       PRES   REMARKS
SPRINGFIELD    CLEAR     38  24  57 W5        30.16S
JOPLIN         CLEAR     45  24  43 SW3       30.19S
BRANSON        CLEAR     48  23  37 SW6       30.19R

$$
MOZ032>034-039>042-045>050-055>058-069>072-110300-
...CENTRAL MISSOURI...

CITY           SKY/WX    TMP DP  RH WIND       PRES   REMARKS
COLUMBIA       CLEAR     44  25  47 W6        30.13R
JEFFERSON CITY CLEAR     40  26  57 CALM      30.14R
ROLLA          CLEAR     40  25  55 W6        30.14R
SEDALIA        CLEAR     47  27  45 W3        30.15S
WHITEMAN AFB   CLEAR     37  25  60 SW3       30.11R
WARRENSBURG    CLEAR     41  25  52 CALM      30.15R
OSAGE BEACH    CLEAR     41  26  55 CALM      30.16R

$$
MOZ051-052-059>065-110300-
...EAST CENTRAL MISSOURI...

CITY           SKY/WX    TMP DP  RH WIND       PRES   REMARKS
ST LOUIS INTL  CLEAR     39  26  59 W8        30.13R
SPIRIT OF STL  CLEAR     35  25  66 CALM      30.13R
ST CHARLES     CLEAR     32  21  64 CALM      30.12R

$$
MOZ072>076-082>087-097>100-106>115-110300-
...SOUTH CENTRAL AND SOUTHEAST MISSOURI...

CITY           SKY/WX    TMP DP  RH WIND       PRES   REMARKS
CAPE GIRARDEAU CLEAR     36  29  75 CALM      30.13R
FARMINGTON     CLEAR     46  25  43 NW7       30.14R
POPLAR BLUFF   CLEAR     44  30  57 W3        30.14R
WEST PLAINS    CLEAR     45  23  42 W7        30.17R

$$



USA.gov is the U.S. government's official web portal to all federal, state and local government web resources and services.